When you browse on this site, cookies collect data to enhance your experience and personalize the content and advertising you see.
Visit our Privacy Policy to learn more. By continuing to use the site, you agree to this use of cookies and data.
  • In United Kingdom
  • List of Countries
  • For 7 days
  • Water Temperature
  • Weather Map
  • Weather Widgets
  • user-avatar
    Login

    Hourly Weather Albany

    Today, 17 September, Tuesday

    Time Temperature Precipitation Wind Pressure Humidity
    00:00 +11°C° 0 mm 3 mps 760 mmHg 90%
    01:00 +11°C° 0 mm 3 mps 759 mmHg 91%
    02:00 +10°C° 0 mm 2 mps 758 mmHg 92%
    03:00 +10°C° 0 mm 2 mps 758 mmHg 91%
    04:00 +10°C° 0 mm 2 mps 758 mmHg 90%
    05:00 +11°C° 0 mm 1 mps 758 mmHg 90%
    06:00 +12°C° 0 mm 2 mps 758 mmHg 86%
    07:00 +14°C° 0 mm 2 mps 758 mmHg 83%
    08:00 +16°C° 0 mm 2 mps 757 mmHg 78%
    09:00 +17°C° 0 mm 2 mps 757 mmHg 74%
    10:00 +19°C° 0 mm 2 mps 757 mmHg 70%
    11:00 +21°C° 0 mm 3 mps 757 mmHg 65%
    12:00 +21°C° 0 mm 3 mps 757 mmHg 67%
    13:00 +21°C° 0 mm 4 mps 756 mmHg 69%
    14:00 +21°C° 0 mm 5 mps 756 mmHg 70%
    15:00 +20°C° 0 mm 5 mps 756 mmHg 73%
    16:00 +19°C° 0 mm 5 mps 756 mmHg 76%
    17:00 +17°C° 0 mm 5 mps 757 mmHg 78%
    18:00 +16°C° 0 mm 5 mps 757 mmHg 82%
    19:00 +15°C° 0 mm 4 mps 757 mmHg 85%
    20:00 +14°C° 0 mm 4 mps 758 mmHg 88%
    21:00 +13°C° 0 mm 4 mps 757 mmHg 90%
    22:00 +12°C° 0 mm 4 mps 757 mmHg 91%
    23:00 +12°C° 0 mm 4 mps 757 mmHg 93%

    Tomorrow, 18 September, Wednesday

    Time Temperature Precipitation Wind Pressure Humidity
    00:00 +11°C° 0 mm 4 mps 757 mmHg 93%
    01:00 +11°C° 0 mm 4 mps 756 mmHg 93%
    02:00 +10°C° 0 mm 5 mps 756 mmHg 93%
    03:00 +10°C° 0 mm 5 mps 756 mmHg 93%
    04:00 +10°C° 0 mm 5 mps 755 mmHg 93%
    05:00 +10°C° 0 mm 5 mps 755 mmHg 93%
    06:00 +12°C° 0 mm 5 mps 755 mmHg 89%
    07:00 +13°C° 0 mm 6 mps 754 mmHg 86%
    08:00 +14°C° 0 mm 6 mps 754 mmHg 83%
    09:00 +16°C° 0 mm 7 mps 754 mmHg 77%
    10:00 +17°C° 0 mm 7 mps 753 mmHg 72%
    11:00 +20°C° 0 mm 7 mps 753 mmHg 66%
    12:00 +20°C° 0 mm 8 mps 752 mmHg 64%
    13:00 +21°C° 0 mm 9 mps 750 mmHg 62%
    14:00 +21°C° 0 mm 9 mps 749 mmHg 61%
    15:00 +19°C° 0.1 mm 9 mps 749 mmHg 64%
    16:00 +18°C° 0.1 mm 9 mps 749 mmHg 68%
    17:00 +16°C° 0.1 mm 9 mps 749 mmHg 71%
    18:00 +15°C° 1.8 mm 9 mps 750 mmHg 78%
    19:00 +12°C° 1.8 mm 9 mps 751 mmHg 84%
    20:00 +10°C° 1.8 mm 9 mps 751 mmHg 91%
    21:00 +8°C° 0.3 mm 9 mps 752 mmHg 87%
    22:00 +8°C° 0.3 mm 9 mps 752 mmHg 84%
    23:00 +7°C° 0.3 mm 9 mps 753 mmHg 80%

    Day after tomorrow, 19 September, Thursday

    Time Temperature Precipitation Wind Pressure Humidity
    00:00 +6°C° 0.3 mm 9 mps 753 mmHg 82%
    01:00 +6°C° 0.3 mm 9 mps 753 mmHg 84%
    02:00 +6°C° 0.3 mm 9 mps 754 mmHg 86%
    03:00 +6°C° 0.4 mm 9 mps 754 mmHg 85%
    04:00 +5°C° 0.4 mm 9 mps 755 mmHg 84%
    05:00 +5°C° 0.4 mm 10 mps 756 mmHg 84%
    06:00 +6°C° 0.3 mm 10 mps 756 mmHg 81%
    07:00 +6°C° 0.3 mm 9 mps 757 mmHg 78%
    08:00 +7°C° 0.3 mm 9 mps 758 mmHg 76%
    09:00 +7°C° 0.3 mm 9 mps 758 mmHg 72%
    10:00 +8°C° 0.3 mm 9 mps 759 mmHg 68%
    11:00 +10°C° 0.3 mm 9 mps 760 mmHg 64%
    12:00 +10°C° 0.2 mm 9 mps 760 mmHg 64%
    13:00 +10°C° 0.2 mm 9 mps 760 mmHg 64%
    14:00 +10°C° 0.2 mm 8 mps 760 mmHg 64%
    15:00 +9°C° 0.2 mm 7 mps 761 mmHg 67%
    16:00 +9°C° 0.2 mm 7 mps 761 mmHg 70%
    17:00 +9°C° 0.2 mm 6 mps 762 mmHg 72%
    18:00 +8°C° 0.3 mm 6 mps 763 mmHg 76%
    19:00 +8°C° 0.3 mm 6 mps 763 mmHg 80%
    20:00 +7°C° 0.3 mm 5 mps 764 mmHg 84%
    21:00 +7°C° 0.3 mm 5 mps 764 mmHg 85%
    22:00 +7°C° 0.3 mm 5 mps 764 mmHg 86%
    23:00 +6°C° 0.3 mm 5 mps 764 mmHg 87%

    20 September, Friday

    Time Temperature Precipitation Wind Pressure Humidity
    00:00 +7°C° 0.2 mm 5 mps 764 mmHg 87%
    01:00 +7°C° 0.2 mm 4 mps 764 mmHg 87%
    02:00 +7°C° 0.2 mm 4 mps 764 mmHg 86%
    03:00 +7°C° 0.2 mm 4 mps 764 mmHg 86%
    04:00 +7°C° 0.2 mm 4 mps 765 mmHg 86%
    05:00 +7°C° 0.2 mm 4 mps 765 mmHg 86%
    06:00 +8°C° 0.1 mm 4 mps 765 mmHg 85%
    07:00 +9°C° 0.1 mm 3 mps 765 mmHg 84%
    08:00 +10°C° 0.1 mm 3 mps 765 mmHg 83%
    09:00 +10°C° 0.3 mm 3 mps 766 mmHg 83%
    10:00 +11°C° 0.3 mm 4 mps 766 mmHg 83%
    11:00 +11°C° 0.3 mm 4 mps 766 mmHg 84%
    12:00 +11°C° 0.2 mm 4 mps 766 mmHg 80%
    13:00 +12°C° 0.2 mm 4 mps 765 mmHg 76%
    14:00 +12°C° 0.2 mm 5 mps 765 mmHg 72%
    15:00 +12°C° 0.2 mm 4 mps 765 mmHg 74%
    16:00 +11°C° 0.2 mm 4 mps 766 mmHg 77%
    17:00 +11°C° 0.2 mm 3 mps 766 mmHg 80%
    18:00 +11°C° 0.1 mm 3 mps 766 mmHg 81%
    19:00 +10°C° 0.1 mm 3 mps 767 mmHg 82%
    20:00 +10°C° 0.1 mm 3 mps 767 mmHg 83%
    21:00 +9°C° 0 mm 3 mps 767 mmHg 83%
    22:00 +9°C° 0 mm 3 mps 767 mmHg 82%
    23:00 +8°C° 0 mm 2 mps 767 mmHg 82%

    21 September, Saturday

    Time Temperature Precipitation Wind Pressure Humidity
    00:00 +8°C° 0.1 mm 3 mps 767 mmHg 84%
    01:00 +9°C° 0.1 mm 3 mps 767 mmHg 85%
    02:00 +9°C° 0.1 mm 3 mps 767 mmHg 87%
    03:00 +9°C° 0.1 mm 3 mps 767 mmHg 86%
    04:00 +9°C° 0.1 mm 3 mps 767 mmHg 86%
    05:00 +9°C° 0.1 mm 3 mps 768 mmHg 85%
    06:00 +9°C° 0 mm 3 mps 768 mmHg 83%
    07:00 +10°C° 0 mm 3 mps 768 mmHg 81%
    08:00 +12°C° 0 mm 2 mps 768 mmHg 80%
    09:00 +11°C° 0 mm 3 mps 768 mmHg 74%
    10:00 +12°C° 0 mm 3 mps 769 mmHg 69%
    11:00 +13°C° 0 mm 3 mps 769 mmHg 63%
    12:00 +13°C° 0 mm 3 mps 769 mmHg 64%
    13:00 +13°C° 0 mm 3 mps 768 mmHg 64%
    14:00 +13°C° 0 mm 3 mps 768 mmHg 65%
    15:00 +13°C° 0 mm 3 mps 768 mmHg 66%
    16:00 +12°C° 0 mm 3 mps 768 mmHg 68%
    17:00 +13°C° 0 mm 2 mps 769 mmHg 69%
    18:00 +12°C° 0 mm 2 mps 769 mmHg 72%
    19:00 +10°C° 0 mm 1 mps 769 mmHg 74%
    20:00 +9°C° 0 mm 1 mps 770 mmHg 77%
    21:00 +9°C° 0 mm 1 mps 770 mmHg 76%
    22:00 +9°C° 0 mm 1 mps 770 mmHg 75%
    23:00 +10°C° 0 mm 1 mps 770 mmHg 75%

    22 September, Sunday

    Time Temperature Precipitation Wind Pressure Humidity
    00:00 +10°C° 0 mm 1 mps 770 mmHg 73%
    01:00 +10°C° 0 mm 1 mps 770 mmHg 72%
    02:00 +10°C° 0 mm 1 mps 770 mmHg 71%
    03:00 +10°C° 0 mm 1 mps 770 mmHg 72%
    04:00 +10°C° 0 mm 1 mps 770 mmHg 73%
    05:00 +9°C° 0 mm 1 mps 769 mmHg 74%
    06:00 +10°C° 0 mm 1 mps 770 mmHg 73%
    07:00 +11°C° 0 mm 1 mps 770 mmHg 73%
    08:00 +10°C° 0 mm 2 mps 770 mmHg 72%
    09:00 +13°C° 0 mm 1 mps 770 mmHg 66%
    10:00 +15°C° 0 mm 1 mps 770 mmHg 60%
    11:00 +16°C° 0 mm 1 mps 770 mmHg 54%
    12:00 +16°C° 0 mm 1 mps 769 mmHg 54%
    13:00 +16°C° 0 mm 1 mps 769 mmHg 55%
    14:00 +16°C° 0 mm 2 mps 768 mmHg 56%
    15:00 +16°C° 0 mm 2 mps 768 mmHg 60%
    16:00 +14°C° 0 mm 3 mps 768 mmHg 64%
    17:00 +13°C° 0 mm 3 mps 768 mmHg 68%
    18:00 +12°C° 0 mm 3 mps 768 mmHg 71%
    19:00 +11°C° 0 mm 3 mps 769 mmHg 74%
    20:00 +9°C° 0 mm 3 mps 769 mmHg 78%
    21:00 +9°C° 0 mm 3 mps 769 mmHg 80%
    22:00 +8°C° 0 mm 3 mps 768 mmHg 82%
    23:00 +7°C° 0 mm 4 mps 768 mmHg 83%
    Show more